Location: Walnut Point State Park
(39.6958°N, 88.0345°W)
Time: 02:05:22
(UTC-05:00)

Cosmos 1833 Rocket - Visible Passes

Search period start: 24 June 2017 00:00
Search period end: 04 July 2017 00:00
Orbit: 831 x 841 km, 71.0° (Epoch: 23 June)

Date Brightness Start Highest point End Pass type
(mag) Time Alt. Az. Time Alt. Az. Time Alt. Az.
24 Jun 3.7 01:50:16 10° N 01:55:38 43° ENE 01:58:54 22° ESE visible
24 Jun 3.7 03:34:44 10° NW 03:39:17 25° WSW 03:40:32 23° WSW visible
25 Jun 3.8 01:33:37 10° N 01:38:55 40° ENE 01:41:44 24° ESE visible
25 Jun 3.6 03:17:55 10° NW 03:22:38 28° WSW 03:23:22 27° WSW visible
26 Jun 3.9 01:16:59 10° N 01:22:12 37° ENE 01:24:41 25° ESE visible
26 Jun 3.5 03:01:07 10° NW 03:05:59 30° WSW 03:06:19 30° WSW visible
27 Jun 4.0 01:00:22 10° N 01:05:29 34° ENE 01:07:44 25° E visible
27 Jun 3.4 02:44:20 10° NW 02:49:20 33° WSW 02:49:23 33° WSW visible
28 Jun 4.1 00:43:45 10° N 00:48:46 31° ENE 00:50:51 24° E visible
28 Jun 3.4 02:27:34 10° NW 02:32:31 36° W 02:32:31 36° W visible
29 Jun 4.2 00:27:07 10° N 00:32:01 29° ENE 00:34:03 23° E visible
29 Jun 3.3 02:10:48 10° NW 02:15:43 39° W 02:15:43 39° W visible
30 Jun 4.2 00:10:31 10° N 00:15:17 27° NE 00:17:18 22° E visible
30 Jun 3.2 01:54:03 10° NW 01:58:58 42° W 01:58:58 42° W visible
30 Jun 4.3 23:53:55 10° N 23:58:33 25° NE 00:00:36 21° E visible
01 Jul 3.1 01:37:19 10° NW 01:42:17 46° W 01:42:17 46° W visible
01 Jul 4.4 23:37:21 10° N 23:41:48 23° NE 23:43:58 19° E visible
02 Jul 3.0 01:20:34 10° NNW 01:25:38 50° W 01:25:38 50° W visible
02 Jul 4.5 23:20:45 10° N 23:25:04 22° NE 23:27:22 17° E visible
03 Jul 2.9 01:03:51 10° NNW 01:09:02 55° W 01:09:02 55° W visible
03 Jul 4.5 23:04:12 10° N 23:08:19 20° NE 23:10:47 16° E visible
